Vorticity
6 6 6 6 6 7 7 7 7 7 7 7 8 8 8 8 8 8 8 8 9 9 9 8 8 8 8 7 8 7 10 13 3 11 28 15 10 9 5 4 -1 9 6 7 1 4 8
6 6 6 6 6 7 7 8 8 8 8 8 8 8 8 8 8 8 7 8 9 9 9 9 9 8 8 3 22 18 12 18 13 9 10 18 18 4 9 8 1 3 7 8 10 11 1
7 7 7 7 7 7 8 8 7 7 8 8 8 8 8 8 8 8 8 8 8 9 9 9 10 10 7 12 11 13 14 15 10 3 1 12 22 16 9 6 7 8 -4 17 7 5 18
7 7 7 8 8 8 8 8 8 8 8 8 7 8 8 8 8 8 9 9 11 10 12 12 12 9 5 12 19 19 18 23 27 22 6 9 23 20 13 4 13 46 -5 11 7 4 8
8 8 7 7 7 8 8 8 8 8 8 8 8 8 8 8 8 8 9 10 11 10 11 11 12 9 23 26 16 6 5 0 -4 22 64 -5 -11 25 5 9 -23 -0 18 10 2 1 -7
8 8 7 8 8 8 8 8 8 8 8 8 8 8 9 8 7 9 10 9 10 11 12 9 12 19 22 6 2 0 8 9 12 1 15 49 -1 -8 37 -22 6 10 -6 24 9 12 0
7 7 8 8 9 8 8 8 8 7 8 8 8 9 9 8 8 10 9 12 13 12 -5 11 9 2 10 5 5 17 1 19 15 11 15 21 2 27 39 3 -1 25 17 1 3 2 -2
8 8 8 8 8 8 8 8 8 8 8 8 9 9 10 9 10 8 8 10 15 5 7 33 44 29 46 24 28 18 16 12 24 21 3 16 43 -41 36 42 -1 0 8 5 40 -10 24
8 8 8 8 7 8 8 8 8 8 8 8 8 9 10 11 8 9 5 12 12 9 12 17 7 7 -1 14 7 8 -6 5 -3 6 23 12 38 14 -24 -2 12 11 10 4 -11 2 18
9 9 9 7 7 8 8 8 8 8 9 9 9 9 10 12 12 7 7 11 10 8 28 0 4 10 0 -4 28 -9 6 3 7 0 16 28 26 28 15 25 -6 2 18 7 -4 0 11
9 9 8 7 6 8 8 8 8 8 9 10 10 10 9 9 10 7 7 11 12 14 17 9 -0 -15 20 -2 37 12 30 24 4 12 13 -27 -11 23 60 -16 9 21 44 21 5 23 -15
9 8 7 8 6 7 8 7 8 9 9 11 11 10 9 12 9 6 9 12 19 23 9 7 -30 -1 5 11 7 -3 11 5 37 31 41 8 12 -9 8 56 24 -18 -16 4 20 28 20
9 7 9 8 6 8 8 8 7 9 9 11 13 11 9 14 11 7 12 15 19 5 -3 -3 3 3 5 13 -2 7 13 10 -14 25 18 39 23 23 16 43 20 14 23 33 21 21 -9
8 8 10 8 6 8 9 8 7 9 9 11 14 12 10 14 8 13 16 12 14 5 -5 2 4 15 35 -1 7 6 15 14 12 9 26 5 24 37 32 8 24 20 5 -25 20 10 42
8 8 9 9 5 9 8 9 7 9 8 11 15 11 13 10 22 11 9 15 3 -1 -7 4 7 22 9 2 21 -3 14 15 15 7 21 8 4 17 9 32 -6 37 48 -24 -27 31 9
9 11 7 8 7 9 8 9 7 8 8 9 15 14 21 18 -4 9 10 3 1 -8 11 3 22 -0 -39 8 31 2 24 8 6 4 8 -5 17 10 57 28 26 -34 40 39 -4 14 4
9 9 8 8 9 9 10 8 9 9 7 10 14 15 18 12 6 4 5 4 5 17 2 9 1 7 26 -1 8 23 -3 -2 13 1 10 5 20 -40 36 39 -4 21 -1 2 8 -5 -9
11 8 10 8 9 10 8 8 9 8 7 10 11 22 8 8 9 3 1 13 2 2 10 11 20 -14 27 -2 14 49 -4 -13 24 -1 5 18 15 -3 5 36 116 5 44 -3 -18 35 25
10 10 8 9 10 9 9 9 10 9 7 7 11 21 15 9 11 9 3 -0 9 23 4 -4 -1 1 5 10 21 17 20 15 10 11 -12 4 -5 20 6 2 -42 30 3 40 48 -54 16
10 9 9 10 9 10 9 10 9 8 7 9 13 10 9 16 18 14 2 12 9 -0 11 24 5 11 12 18 -2 -6 -10 2 21 11 8 21 5 -4 -16 -20 -0 -1 15 21 4 33 13
9 9 10 11 8 9 10 10 9 9 8 8 12 12 5 -9 -15 4 6 -5 14 10 10 8 10 -2 10 9 8 33 -4 13 9 36 19 21 5 10 12 19 13 -1 -12 -1 14 9 11
8 9 11 11 10 9 10 9 9 10 8 10 11 6 15 8 13 2 4 -1 8 16 5 -0 3 6 4 -0 1 15 12 -1 8 2 -8 -3 -12 7 11 21 9 21 4 0 13 15 14
8 8 11 10 10 9 8 8 8 12 10 11 10 8 7 6 10 -0 1 4 1 -1 12 1 11 2 8 14 4 3 9 5 6 6 2 9 -4 4 9 -7 -2 63 22 42 16 4 14
10 10 11 10 10 9 8 8 8 11 13 10 17 11 8 -1 5 6 6 7 8 2 10 3 1 4 10 10 15 7 12 15 5 14 13 1 2 8 -11 36 23 11 -12 -1 1 10 16
10 10 10 10 10 9 8 8 8 11 12 10 12 14 6 -4 4 3 8 7 10 12 8 -4 16 12 22 9 15 32 23 35 39 46 29 29 25 11 -4 -2 -19 31 20 37 44 10 -2
11 11 11 10 9 9 8 9 9 10 15 6 12 10 9 6 6 26 11 -3 -0 6 20 21 4 -0 13 -6 20 19 8 -1 23 18 9 17 34 21 3 5 5 -11 -28 -31 9 13 32
10 11 10 11 9 8 7 9 10 10 11 10 13 9 10 9 15 29 22 17 15 0 -3 9 17 7 29 24 19 24 15 14 14 4 -10 1 12 13 18 -5 11 11 29 21 29 -20 10
11 11 11 10 9 9 8 10 12 11 12 10 13 8 11 9 8 22 34 18 20 33 39 31 21 41 19 28 19 12 18 0 7 18 16 8 4 5 35 27 20 30 12 3 1 6 4
10 11 11 11 10 9 9 11 10 11 11 6 10 15 6 7 -10 13 19 39 29 27 3 0 -1 -19 -24 -18 -27 1 -16 30 17 0 1 27 -4 -8 -6 3 -0 3 -18 -2 -3 5 4
Height
3099 3098 3097 3096 3094 3093 3092 3092 3090 3088 3086 3084 3083 3081 3080 3078 3076 3074 3072 3071 3069 3068 3066 3063 3060 3058 3058 3056 3060 3062 3058 3059 3060 3062 3066 3071 3076 3080 3078 3081 3085 3084 3085 3089 3094 3099 3099
3096 3095 3093 3092 3091 3090 3090 3089 3087 3084 3082 3080 3078 3075 3073 3070 3068 3066 3064 3063 3061 3059 3057 3055 3053 3053 3049 3047 3053 3054 3053 3053 3054 3055 3059 3060 3065 3068 3070 3071 3074 3078 3080 3084 3089 3089 3092
3093 3091 3090 3089 3088 3087 3086 3084 3082 3079 3077 3075 3072 3070 3068 3067 3064 3062 3060 3058 3055 3052 3048 3046 3044 3042 3040 3041 3044 3044 3044 3045 3046 3048 3050 3054 3056 3056 3058 3061 3067 3071 3075 3077 3076 3079 3081
3089 3088 3087 3085 3084 3083 3081 3079 3077 3074 3072 3070 3068 3066 3064 3062 3059 3056 3054 3051 3049 3045 3042 3040 3037 3033 3026 3033 3034 3035 3034 3036 3036 3036 3040 3046 3047 3045 3047 3053 3058 3063 3069 3065 3060 3072 3070
3086 3085 3083 3081 3080 3079 3077 3074 3072 3070 3068 3066 3064 3062 3060 3057 3054 3052 3049 3046 3043 3039 3036 3032 3030 3026 3022 3025 3026 3026 3027 3026 3028 3028 3027 3035 3036 3035 3041 3043 3051 3053 3048 3050 3050 3060 3064
3082 3080 3078 3077 3076 3075 3072 3071 3069 3066 3063 3061 3060 3058 3056 3053 3050 3047 3043 3040 3037 3033 3029 3026 3024 3024 3021 3020 3018 3018 3018 3017 3018 3018 3018 3022 3023 3025 3029 3034 3031 3032 3037 3036 3031 3046 3055
3078 3076 3075 3074 3072 3070 3069 3067 3065 3062 3060 3058 3056 3054 3052 3049 3046 3042 3038 3037 3037 3031 3026 3025 3020 3012 3011 3014 3009 3012 3011 3008 3008 3008 3008 3012 3014 3008 3013 3021 3027 3033 3032 3028 3025 3042 3048
3073 3072 3071 3069 3068 3067 3065 3062 3060 3058 3056 3054 3052 3050 3048 3046 3042 3038 3033 3030 3026 3023 3012 3020 3011 3009 3004 3004 3004 3007 3006 3006 3003 3000 3001 3003 2998 3001 3007 3014 3019 3025 3027 3022 3025 3036 3040
3069 3068 3067 3066 3064 3063 3061 3059 3057 3054 3052 3049 3047 3045 3044 3041 3039 3034 3029 3029 3024 3021 3017 3014 3010 3006 3003 3003 3003 3005 3003 3001 2997 2994 2995 2996 2986 2997 2999 2997 3006 3010 3016 3013 3016 3028 3031
3065 3064 3064 3062 3060 3059 3057 3055 3053 3050 3048 3045 3043 3041 3038 3038 3036 3031 3027 3025 3021 3018 3016 3013 3009 3007 3006 3003 3002 3000 3000 2998 2993 2989 2989 2983 2981 2982 2984 2985 2994 3000 3008 3009 3018 3027 3023
3061 3060 3059 3058 3057 3054 3052 3050 3048 3046 3043 3041 3039 3036 3034 3028 3029 3028 3025 3022 3019 3018 3021 3012 3009 3008 3007 3005 3001 2996 2995 2989 2988 2984 2985 2974 2975 2975 2970 2972 2984 2985 2999 3008 3013 3016 3017
3057 3055 3054 3053 3052 3050 3048 3045 3043 3041 3039 3037 3035 3032 3030 3027 3022 3021 3020 3018 3018 3019 3013 3008 3007 3003 3004 3000 2998 2996 2992 2988 2983 2978 2974 2967 2970 2968 2963 2967 2972 2984 2990 2992 2997 3002 2996
3052 3051 3050 3048 3047 3046 3044 3040 3038 3036 3034 3032 3031 3029 3024 3022 3021 3017 3015 3016 3017 3013 3010 3008 3002 3001 3001 2999 2996 2993 2990 2986 2982 2976 2968 2961 2956 2957 2959 2957 2963 2973 2981 2979 2981 2980 2979
3048 3047 3046 3044 3043 3041 3039 3036 3033 3031 3030 3028 3027 3025 3021 3018 3016 3014 3014 3014 3013 3010 3008 3005 3002 2999 2999 2997 2993 2990 2986 2983 2979 2976 2969 2963 2955 2951 2951 2949 2953 2962 2963 2962 2961 2964 2970
3044 3043 3041 3039 3038 3036 3034 3031 3028 3026 3024 3024 3023 3021 3018 3014 3012 3011 3012 3012 3009 3008 3008 3004 2999 2997 2997 2995 2993 2988 2984 2981 2977 2974 2972 2965 2954 2952 2947 2947 2952 2951 2952 2961 2965 2965 2964
3039 3038 3036 3034 3033 3031 3029 3027 3024 3021 3020 3020 3020 3017 3014 3010 3010 3009 3009 3009 3007 3007 3006 3003 3001 2999 2995 2990 2989 2987 2982 2979 2977 2974 2969 2965 2955 2947 2941 2945 2946 2949 2955 2955 2956 2956 2957
3035 3033 3032 3030 3028 3026 3025 3022 3020 3018 3016 3016 3015 3014 3012 3008 3007 3007 3005 3005 3004 3004 3003 3002 2998 2996 2994 2990 2987 2984 2981 2978 2975 2972 2969 2964 2958 2947 2944 2943 2945 2949 2947 2950 2950 2951 2952
3030 3029 3027 3025 3024 3022 3020 3017 3016 3014 3013 3012 3012 3011 3008 3005 3006 3003 3002 3002 3002 3000 2999 2997 2995 2994 2992 2988 2984 2981 2980 2978 2974 2971 2967 2964 2957 2949 2941 2938 2938 2940 2940 2943 2941 2945 2945
3025 3024 3022 3021 3019 3017 3015 3014 3012 3010 3009 3008 3006 3007 3004 3002 3002 3000 3000 2998 2998 2997 2996 2994 2993 2992 2990 2988 2985 2978 2976 2974 2972 2969 2966 2964 2956 2950 2941 2938 2933 2938 2940 2937 2935 2939 2937
3020 3019 3017 3016 3014 3012 3011 3010 3008 3006 3005 3005 3003 3003 3002 2998 2997 2997 2996 2995 2994 2994 2991 2991 2988 2988 2985 2982 2982 2977 2974 2970 2968 2966 2965 2963 2957 2954 2955 2951 2944 2938 2936 2934 2933 2932 2936
3016 3014 3013 3011 3009 3008 3007 3006 3004 3003 3000 3001 2998 2997 2996 2995 2995 2993 2993 2992 2990 2988 2988 2987 2984 2984 2982 2979 2975 2974 2971 2967 2965 2962 2961 2960 2954 2952 2950 2947 2943 2939 2936 2936 2933 2931 2931
3010 3009 3008 3007 3005 3004 3003 3002 3000 2998 2996 2996 2994 2993 2991 2988 2989 2988 2988 2986 2986 2985 2985 2982 2981 2979 2978 2976 2975 2969 2968 2967 2962 2959 2958 2955 2949 2950 2944 2942 2939 2937 2934 2930 2928 2927 2928
3005 3003 3002 3002 3001 3000 2998 2997 2996 2994 2992 2990 2990 2989 2987 2983 2982 2983 2982 2982 2981 2980 2979 2978 2976 2974 2972 2971 2968 2966 2963 2961 2958 2956 2955 2955 2953 2951 2944 2946 2945 2939 2931 2928 2928 2929 2927
2999 2998 2997 2997 2996 2995 2993 2992 2991 2989 2987 2987 2986 2985 2983 2977 2976 2977 2976 2976 2975 2974 2971 2971 2971 2969 2967 2964 2961 2958 2955 2953 2952 2949 2951 2950 2951 2953 2944 2939 2935 2925 2925 2926 2925 2922 2922
2992 2991 2991 2991 2990 2989 2988 2987 2986 2985 2983 2981 2981 2980 2978 2970 2970 2969 2969 2968 2967 2966 2965 2963 2964 2964 2961 2959 2954 2948 2946 2945 2943 2941 2943 2944 2946 2947 2947 2943 2929 2922 2922 2920 2921 2921 2922
2986 2985 2985 2985 2985 2983 2982 2981 2981 2979 2978 2975 2976 2974 2972 2967 2960 2964 2962 2960 2959 2957 2956 2956 2957 2957 2957 2954 2952 2948 2943 2942 2940 2939 2939 2940 2939 2943 2944 2943 2938 2925 2926 2926 2926 2927 2924
2980 2979 2979 2979 2978 2977 2976 2975 2975 2974 2973 2971 2971 2968 2965 2960 2954 2958 2955 2954 2953 2952 2949 2949 2950 2950 2951 2947 2945 2943 2941 2941 2939 2937 2937 2939 2937 2937 2938 2937 2928 2923 2920 2920 2924 2932 2925
2974 2973 2973 2973 2972 2971 2970 2969 2969 2968 2967 2965 2966 2963 2960 2953 2948 2949 2949 2945 2944 2945 2944 2945 2947 2946 2945 2944 2942 2940 2938 2937 2936 2935 2932 2934 2935 2931 2932 2932 2927 2922 2919 2921 2924 2924 2922
2967 2967 2966 2966 2965 2964 2964 2963 2963 2962 2962 2959 2960 2958 2954 2948 2943 2942 2939 2937 2937 2938 2940 2940 2942 2942 2943 2942 2942 2939 2937 2934 2934 2931 2930 2930 2930 2930 2930 2925 2922 2920 2917 2917 2919 2917 2916